Regional Weather Roundup
Issued by NWS

Home | Current Version | Previous Version | Text Only | Print | Product List | Glossary Off
Versions: 1 2 3 4 5 6 7 8 9 10 11 12 13 14 15 16 17 18 19 20 21 22 23 24 25 26 27 28 29 30 31 32 33 34 35 36 37 38 39 40 41 42 43 44 45 46 47 48 49 50

000
ASUS43 KBIS 290431
RWRND
NORTH DAKOTA REGIONAL WEATHER ROUNDUP
NATIONAL WEATHER SERVICE EASTERN NORTH DAKOTA/GRAND FORKS ND
1100 PM CDT SUN MAY 28 2017

  NOTE: "FAIR" INDICATES FEW OR NO CLOUDS BELOW 12,000 FEET WITH NO
  SIGNIFICANT WEATHER AND/OR OBSTRUCTIONS TO VISIBILITY.

NDZ001>003-009>011-017-290500-
...NORTHWEST NORTH DAKOTA...

CITY           SKY/WX    TMP DP  RH WIND       PRES   REMARKS
WILLISTON      FAIR      54  39  57 N9        30.06R
MINOT          MOCLDY    55  42  61 NW20G28   29.95R
MINOT AFB      CLOUDY    54  43  66 NW18      29.94R
$$

NDZ018>021-031>035-040>046-290500-
...SOUTHWEST NORTH DAKOTA...

CITY           SKY/WX    TMP DP  RH WIND       PRES   REMARKS
BISMARCK       FAIR      56  40  55 NW12      29.96R
DICKINSON      FAIR      50  35  56 N7        30.03R
GARRISON         N/A     49  40  71 NW12      29.97R
HETTINGER      FAIR      53  36  52 N14       30.05R
$$

NDZ004>008-012>016-024-026-027-054-290500-
...NORTHEAST NORTH DAKOTA...

CITY           SKY/WX    TMP DP  RH WIND       PRES   REMARKS
GRAND FORKS    CLOUDY    53  50  89 NW17      29.79R
GRAND FORKS AF CLOUDY    52  49  89 N13       29.80S
DEVILS LAKE    CLOUDY    53  46  77 NW13      29.86R
$$

NDZ022-023-025-028>030-036>039-047>053-290500-
...SOUTHEAST NORTH DAKOTA...

CITY           SKY/WX    TMP DP  RH WIND       PRES   REMARKS
JAMESTOWN      CLOUDY    52  48  86 NW9       29.86R
FARGO          CLOUDY    54  48  80 NW14      29.80R
WAHPETON       CLOUDY    52  46  82 W6        29.81S
$$



USA.gov is the U.S. government's official web portal to all federal, state and local government web resources and services.